STARLINK-2711 (48673 NORAD) Tracking and Keplerian Element Data

This shows tracking and keplerian element data for the satellite.

Feedback or suggestion? Click here.




ElementValue
Catalog48673
NameSTARLINK-2711
Epoch Orbit365
Epoch Day214.91667824
Epoch Year2021
RAAN92.4665
Inclination53.0444
Eccentricity0.0001436
Argument of Perigee59.0671
Mean Anonmoly287.2524
Mean Motion15.12417724
Decay Rate-0.0092353
L11 48673U 21044AM 21214.91667824 -.00923530 00000-0 -56815-1 0 9992
L22 48673 53.0444 92.4665 0001436 59.0671 287.2524 15.12417724 3652

Live tracking and technical data element details for STARLINK-2711 (NORAD 48673). STARLINK-2711 can be tracked NOW for your location showing map with azimuth and elevation plus other details from your city location.

Track the satellite on the map from your city or location and see movement details for azimuth, elevation, latitude, longitude, range, height, and movement on the map or in text.







IsCatalogInMostPopularTable: catalog: 48673, numindb: 17
Update: records affected: 1



GetName: 48673 STARLINK-2711

Hit Count: updated at: Tue, 03 Aug 2021 21:36:26 GMT